Cody, WY

6:44 PM MDT on May 22, 2017 (GMT -0600)
Yellowstone Regional

Weather History for KCOD - November, 2011

Change the Weather History Date:

Wednesday, November 9, 2011

  Actual Average Record
Temperature  
Mean Temperature 33 °F -  
Max Temperature 42 °F 46 °F 67 °F (1954)
Min Temperature 24 °F 24 °F -5 °F (1966)
Degree Days  
Heating Degree Days 32    
Moisture  
Dew Point 11 °F    
Average Humidity 41    
Maximum Humidity 55    
Minimum Humidity 31    
Precipitation  
Precipitation 0.00 in - - ()
Sea Level Pressure  
Sea Level Pressure 30.36 in    
Wind  
Wind Speed 6 mph (ESE)    
Max Wind Speed 12 mph    
Max Gust Speed 20 mph    
Visibility 10 miles    
Events      
Averages and records for this station are not official NWS values.
T = Trace of Precipitation, MM = Missing Value Source: NWS Daily Summary

Daily Weather History Graph

Daily Weather History Graph

Search for Another Location

Airport or City:

Trip Planner

Search our weather history database for the weather conditions in past years. The results will help you decide how hot, cold, wet, or windy it might be!

Date:

Astronomy

Nov. 09, 2011 Rise Set
Actual Time 7:04 AM MST 4:55 PM MST
Civil Twilight 6:33 AM MST 5:26 PM MST
Nautical Twilight 5:58 AM MST 6:00 PM MST
Astronomical Twilight 5:24 AM MST 6:35 PM MST
Moon 4:08 PM MST (11/9) 6:02 AM MST (11/9)
Length of Visible Light 10h 52m
Length of Day
9h 51m
Waxing Gibbous, 99% of the Moon is Illuminated
Nov 9
Waxing Gibbous
Nov 10
Full
Nov 18
Last Quarter
Nov 24
New
Dec 2
First Quarter

Hourly Weather History & Observations

Time (MST) Temp. Windchill Dew Point Humidity Pressure Visibility Wind Dir Wind Speed Gust Speed Precip Events Conditions
12:15 AM 33.8 °F 27.7 °F 10.4 °F 38% 30.33 in 10.0 mi SW 6.9 mph 19.6 mph N/A   Clear
12:35 AM 32.0 °F 26.4 °F 10.4 °F 41% 30.33 in 10.0 mi SW 5.8 mph 16.1 mph N/A   Clear
12:55 AM 32.0 °F 23.0 °F 10.4 °F 41% 30.34 in 10.0 mi SW 11.5 mph 18.4 mph N/A   Clear
1:35 AM 30.2 °F 20.8 °F 10.4 °F 44% 30.35 in 10.0 mi SW 11.5 mph - N/A   Clear
1:55 AM 32.0 °F 25.6 °F 10.4 °F 41% 30.36 in 10.0 mi SW 6.9 mph - N/A   Clear
2:15 AM 32.0 °F 24.2 °F 10.4 °F 41% 30.35 in 10.0 mi SW 9.2 mph - N/A   Clear
2:35 AM 30.2 °F 24.3 °F 10.4 °F 44% 30.36 in 10.0 mi WSW 5.8 mph - N/A   Clear
2:55 AM 30.2 °F 21.9 °F 10.4 °F 44% 30.35 in 10.0 mi SW 9.2 mph - N/A   Clear
3:15 AM 30.2 °F 25.4 °F 8.6 °F 40% 30.36 in 10.0 mi WSW 4.6 mph - N/A   Clear
3:35 AM 30.2 °F 22.6 °F 10.4 °F 44% 30.35 in 10.0 mi SW 8.1 mph - N/A   Clear
3:55 AM 30.2 °F 22.6 °F 10.4 °F 44% 30.35 in 10.0 mi SSW 8.1 mph - N/A   Clear
4:15 AM 30.2 °F 26.7 °F 8.6 °F 40% 30.35 in 10.0 mi West 3.5 mph - N/A   Clear
4:55 AM 24.8 °F - 6.8 °F 46% 30.36 in 10.0 mi Calm Calm - N/A   Clear
5:15 AM 26.6 °F - 8.6 °F 47% 30.36 in 10.0 mi Calm Calm - N/A   Clear
5:35 AM 24.8 °F - 6.8 °F 46% 30.37 in 10.0 mi Calm Calm - N/A   Clear
5:55 AM 24.8 °F - 6.8 °F 46% 30.37 in 10.0 mi Calm Calm - N/A   Clear
6:15 AM 24.8 °F 20.5 °F 6.8 °F 46% 30.37 in 10.0 mi NNE 3.5 mph - N/A   Clear
6:35 AM 24.8 °F 19.1 °F 8.6 °F 50% 30.38 in 10.0 mi ESE 4.6 mph - N/A   Clear
6:55 AM 24.8 °F 17.9 °F 6.8 °F 46% 30.39 in 10.0 mi East 5.8 mph - N/A   Clear
7:55 AM 26.6 °F - 8.6 °F 47% 30.41 in 10.0 mi Calm Calm - N/A   Clear
8:15 AM 28.4 °F 24.6 °F 10.4 °F 47% 30.42 in 10.0 mi NE 3.5 mph - N/A   Clear
8:35 AM 30.2 °F 26.7 °F 10.4 °F 44% 30.42 in 10.0 mi ESE 3.5 mph - N/A   Clear
8:55 AM 33.8 °F 29.6 °F 12.2 °F 41% 30.42 in 10.0 mi ESE 4.6 mph - N/A   Clear
9:15 AM 33.8 °F 30.8 °F 10.4 °F 38% 30.42 in 10.0 mi SE 3.5 mph - N/A   Clear
9:35 AM 35.6 °F - 10.4 °F 35% 30.41 in 10.0 mi Calm Calm - N/A   Clear
10:15 AM 37.4 °F - 10.4 °F 33% 30.41 in 10.0 mi Calm Calm - N/A   Clear
10:35 AM 37.4 °F 34.9 °F 12.2 °F 36% 30.41 in 10.0 mi North 3.5 mph - N/A   Clear
10:55 AM 37.4 °F 34.9 °F 12.2 °F 36% 30.41 in 10.0 mi NE 3.5 mph - N/A   Clear
11:35 AM 39.2 °F 35.0 °F 14.0 °F 36% 30.39 in 10.0 mi WSW 5.8 mph - N/A   Clear
11:55 AM 39.2 °F 35.0 °F 12.2 °F 33% 30.38 in 10.0 mi ESE 5.8 mph - N/A   Clear
12:15 PM 39.2 °F 35.0 °F 12.2 °F 33% 30.38 in 10.0 mi East 5.8 mph - N/A   Clear
12:35 PM 41.0 °F 36.4 °F 12.2 °F 31% 30.37 in 10.0 mi East 6.9 mph - N/A   Clear
12:55 PM 41.0 °F 36.4 °F 12.2 °F 31% 30.36 in 10.0 mi East 6.9 mph - N/A   Clear
1:15 PM 41.0 °F 36.4 °F 12.2 °F 31% 30.35 in 10.0 mi ESE 6.9 mph - N/A   Clear
1:35 PM 41.0 °F 34.3 °F 15.8 °F 36% 30.34 in 10.0 mi East 11.5 mph - N/A   Clear
1:55 PM 41.0 °F 35.8 °F 15.8 °F 36% 30.34 in 10.0 mi ENE 8.1 mph - N/A   Clear
2:15 PM 42.8 °F 37.0 °F 15.8 °F 34% 30.33 in 10.0 mi ENE 10.4 mph - N/A   Clear
2:35 PM 41.0 °F 36.4 °F 14.0 °F 33% 30.33 in 10.0 mi NE 6.9 mph - N/A   Clear
2:55 PM 41.0 °F 36.4 °F 15.8 °F 36% 30.33 in 10.0 mi ENE 6.9 mph - N/A   Clear
3:35 PM 39.2 °F 33.6 °F 14.0 °F 36% 30.32 in 10.0 mi ENE 8.1 mph - N/A   Clear
3:55 PM - - - N/A% 30.32 in 10.0 mi ENE 5.8 mph - N/A   Clear
4:15 PM - - - N/A% 30.32 in 10.0 mi ENE 5.8 mph - N/A   Clear
4:35 PM - - - N/A% 30.32 in 10.0 mi ENE 5.8 mph - N/A   Clear
4:55 PM 35.6 °F - 12.2 °F 38% 30.32 in 10.0 mi Calm Calm - N/A   Clear
5:15 PM 33.8 °F 27.0 °F 12.2 °F 41% 30.32 in 10.0 mi ENE 8.1 mph - N/A   Clear
5:35 PM 32.0 °F - 12.2 °F 44% 30.33 in 10.0 mi Calm Calm - N/A   Clear
6:15 PM 30.2 °F - 12.2 °F 47% 30.32 in 10.0 mi Calm Calm - N/A   Clear
6:35 PM 26.6 °F - 12.2 °F 55% 30.31 in 10.0 mi Calm Calm - N/A   Clear
7:15 PM 26.6 °F 22.6 °F 12.2 °F 55% 30.31 in 10.0 mi ESE 3.5 mph - N/A   Clear
7:35 PM 28.4 °F - 12.2 °F 51% 30.31 in 10.0 mi Calm Calm - N/A   Clear
7:55 PM 26.6 °F - 10.4 °F 51% 30.31 in 10.0 mi Calm Calm - N/A   Clear
8:15 PM 26.6 °F - 10.4 °F 51% 30.30 in 10.0 mi Calm Calm - N/A   Clear
8:35 PM 24.8 °F - 10.4 °F 54% 30.31 in 10.0 mi Calm Calm - N/A   Clear
8:55 PM 24.8 °F - 10.4 °F 54% 30.30 in 10.0 mi Calm Calm - N/A   Clear
9:15 PM 24.8 °F 19.1 °F 10.4 °F 54% 30.31 in 10.0 mi WSW 4.6 mph - N/A   Clear
9:35 PM 26.6 °F - 10.4 °F 51% 30.31 in 10.0 mi Calm Calm - N/A   Clear
9:55 PM 26.6 °F - 10.4 °F 51% 30.31 in 10.0 mi Calm Calm - N/A   Clear
10:15 PM 26.6 °F - 10.4 °F 51% 30.31 in 10.0 mi Calm Calm - N/A   Clear
10:35 PM 26.6 °F - 10.4 °F 51% 30.30 in 10.0 mi Calm Calm - N/A   Clear
10:55 PM 26.6 °F - 10.4 °F 51% 30.30 in 10.0 mi Calm Calm - N/A   Clear
11:15 PM 26.6 °F 22.6 °F 10.4 °F 51% 30.29 in 10.0 mi North 3.5 mph - N/A   Clear
11:35 PM 26.6 °F 20.0 °F 10.4 °F 51% 30.29 in 10.0 mi NE 5.8 mph - N/A   Clear
11:55 PM 26.6 °F 22.6 °F 10.4 °F 51% 30.29 in 10.0 mi WSW 3.5 mph - N/A   Clear